Location: Ford County Road and Bridge Department
(37.7686°N, 99.9762°W)
Time: 21:42:16
(UTC+00:00)

ERBS - Pass Details

Date: 18 January 2020
Orbit: 412 x 427 km, 57.0° (Epoch: 19 February)

Event Time Altitude Azimuth Distance (km) Brightness Sun altitude
Rises 00:37:10 0° 183° (S) 2,341 6.3 -10.1°
Reaches altitude 10° 00:39:50 10° 160° (SSE) 1,481 5.0 -10.6°
Maximum altitude 00:41:52 15° 122° (ESE) 1,201 4.2 -11.0°
Enters shadow 00:42:47 14° 102° (ESE) 1,264 4.2 -11.1°
